DMSP 5D-2 F11 DEB, 29069

Orbit data source: Space-Track

DMSP 5D-2 F11 DEB, 29069 is space debris in SSO originally from a launch on Thu, 28 Nov 1991 UTC launched from the Air Force Western Test Range (AFWTR). Debris objects in space refer to the collection of defunct objects orbiting the Earth. Examples of debris include non-operational satellites, rocket bodies, and fragments generated from explosions, collisions, or faulty payload assembly.

Loading next visibility...
Identifier
29069, 1991-082BQ
Orbit
SSO
Country
Flag of USUS
Related business
Manufacturer
Unknown
Mission
Spacecraft
Bus & Motor
Unknown
Mass
Unknown
Launch date (UTC)
1991-11-28 (35 years ago)
Launch vehicle
Unknown
Launch site
Air Force Western Test Range (AFWTR)
Object type
Payload
Rocket body
Debris
Shape & HBR
Unknown shape, 0.1 m
Radar Cross Section
Medium (>0.1 m² and <1 m²)

Expand to show TLE details & history
Last TLE update: 1 day ago

TLE from 1 day ago
0 DMSP 5D-2 F11 DEB
1 29069U 91082BQ  26263.48899603  .00003270  00000-0  94029-3 0  9991
2 29069  98.9081 347.4705 0061865  91.7906 335.8166 14.44409884130531
Epoch: 2026-09-20T11:44Z
TLE epoch observation values (Epoch: 2026-09-20T11:44:09.256Z)
Latitude
65.80357°
Longitude
151.74876°
Altitude
715.139 km
Speed
7.525 km/s
True Right ascension
21h 48m 40s
True Declination
65° 40' 26"
Sunlit
Object was in daylight at epoch
Visualization orbit readout
Latitude
Unknown
Longitude
Unknown
Altitude
Unknown
Speed
Unknown
Apparent Right ascension
Unknown
Apparent Declination
Unknown
Sunlit
N/A
Visualization observer readout
Local Sidereal Time
04:58:46
Azimuth
Unknown
Elevation
Unknown
Doppler factor
Unknown
Orbital elements
Apogee altitude
785.144 km
Perigee altitude
697.058 km
Semi-major axis
7,119.238 km
Eccentricity
0.00619
Inclination
98.9081°
RAAN
347.4705°
Arg. of periapsis
91.7906°
True anomaly
335.52412°
Mean anomaly
335.8166°
Eccentric anomaly
335.67057°
Mean motion
3.61321 °/min
Orbital period
99.63 mins
BSTAR
0.00094029
Loading maneuver chart data...
Computing Atmospheric mass density...

Documentation

Showing up to 5 results
|